ANA160 RJTT-KJFK

Flight info

Callsign ANA160
Flight time N/A
Altitude 31000
Route INUBO Y808 NOLAX Y812 ADNAP OTR5 KALNA 43N160E/N0494F330 47N170E 50N180E 53N170W 56N160W/N0489F350 DCT CJAYY DCT 57N140W 56N130W DCT HOWSE DCT ANTID DCT ODGOV/N0489F370 DCT WHIST DCT 49N100W DCT KP21C DCT KP15G DCT KP06K DCT KP84Q DCT JHW Q476 WLKES PUCKY1
Aircraft B77W/H-SDE1E2E3FGHIJ2J3J4J5M1RWXY/LB1D1

Departure

Time 2026-05-05 20:47
Airport Tokyo Haneda International Airport (RJTT)

Arrival

Time N/A
Airport John F. Kennedy International Airport (KJFK)
Time Latitude Longitude Altitude Speed Heading
2026-05-05 20:25 35.55875 139.78421 34 ft 0 kts 240°
2026-05-05 20:38 35.55880 139.78430 34 ft 2 kts 240°
2026-05-05 20:38 35.55887 139.78447 34 ft 2 kts 240°
2026-05-05 20:38 35.55895 139.78462 34 ft 2 kts 240°
2026-05-05 20:38 35.55902 139.78477 34 ft 2 kts 244°
2026-05-05 20:39 35.55906 139.78496 34 ft 2 kts 273°
2026-05-05 20:39 35.55903 139.78513 34 ft 2 kts 296°
2026-05-05 20:39 35.55895 139.78528 34 ft 2 kts 319°
2026-05-05 20:39 35.55886 139.78536 34 ft 1 kts 332°
2026-05-05 20:40 35.55885 139.78536 34 ft 0 kts 332°
2026-05-05 20:43 35.55904 139.78522 34 ft 5 kts 329°
2026-05-05 20:43 35.55950 139.78490 34 ft 9 kts 329°
2026-05-05 20:43 35.56019 139.78438 34 ft 13 kts 328°
2026-05-05 20:43 35.56108 139.78371 34 ft 16 kts 329°
2026-05-05 20:44 35.56211 139.78301 34 ft 15 kts 331°
2026-05-05 20:44 35.56299 139.78305 34 ft 12 kts 44°
2026-05-05 20:44 35.56345 139.78387 34 ft 10 kts 59°
2026-05-05 20:44 35.56380 139.78459 34 ft 9 kts 60°
2026-05-05 20:45 35.56457 139.78626 34 ft 12 kts 59°
2026-05-05 20:45 35.56478 139.78709 34 ft 8 kts 104°
2026-05-05 20:45 35.56444 139.78758 34 ft 6 kts 150°
2026-05-05 20:46 35.56408 139.78784 34 ft 6 kts 148°
2026-05-05 20:46 35.56239 139.78903 34 ft 58 kts 150°
2026-05-05 20:46 35.55695 139.79291 35 ft 119 kts 150°
2026-05-05 20:46 35.54803 139.79923 36 ft 173 kts 149°
2026-05-05 20:47 35.53701 139.80731 299 ft 194 kts 146°
2026-05-05 20:47 35.52599 139.81718 932 ft 203 kts 140°
2026-05-05 20:47 35.51602 139.82913 1735 ft 200 kts 135°
2026-05-05 20:47 35.50618 139.84204 2027 ft 218 kts 135°
2026-05-05 20:48 35.49540 139.85619 2372 ft 235 kts 135°
2026-05-05 20:48 35.48392 139.87125 2886 ft 246 kts 135°
2026-05-05 20:48 35.47218 139.88666 3598 ft 249 kts 135°
2026-05-05 20:48 35.46109 139.90309 4218 ft 257 kts 120°
2026-05-05 20:49 35.45633 139.92433 4819 ft 268 kts 95°
2026-05-05 20:49 35.45601 139.94719 5515 ft 270 kts 93°
2026-05-05 20:49 35.45606 139.97047 6167 ft 274 kts 93°
2026-05-05 20:49 35.45611 139.99393 6783 ft 278 kts 93°
2026-05-05 20:50 35.45616 140.01767 7492 ft 279 kts 92°
2026-05-05 20:50 35.45622 140.04137 8130 ft 281 kts 92°
2026-05-05 20:50 35.45626 140.06534 8800 ft 282 kts 92°
2026-05-05 20:50 35.45631 140.08913 9427 ft 284 kts 92°
2026-05-05 20:51 35.45634 140.11337 10023 ft 287 kts 92°
2026-05-05 20:51 35.45638 140.13797 10553 ft 293 kts 92°
2026-05-05 20:51 35.45639 140.16388 10813 ft 310 kts 92°
2026-05-05 20:51 35.45639 140.19107 11095 ft 325 kts 92°
2026-05-05 20:52 35.45639 140.21938 11404 ft 340 kts 92°
2026-05-05 20:52 35.45639 140.24884 11700 ft 355 kts 92°
2026-05-05 20:52 35.45638 140.27992 11993 ft 370 kts 92°
2026-05-05 20:52 35.45637 140.31195 12349 ft 383 kts 92°
2026-05-05 20:53 35.45636 140.34494 12892 ft 389 kts 92°
2026-05-05 20:53 35.45634 140.37807 13562 ft 392 kts 92°
2026-05-05 20:53 35.45631 140.41151 14255 ft 394 kts 92°
2026-05-05 20:53 35.45626 140.44536 14753 ft 402 kts 92°
2026-05-05 20:54 35.45621 140.47992 15295 ft 407 kts 92°
2026-05-05 20:54 35.45615 140.51443 15860 ft 412 kts 92°
2026-05-05 20:54 35.45608 140.54993 16460 ft 415 kts 92°
2026-05-05 20:54 35.45600 140.58507 17035 ft 419 kts 92°
2026-05-05 20:55 35.45590 140.62105 17585 ft 423 kts 92°
2026-05-05 20:55 35.45580 140.65726 18077 ft 428 kts 92°
2026-05-05 20:55 35.45568 140.69397 18486 ft 435 kts 93°
2026-05-05 20:55 35.45554 140.73126 18901 ft 441 kts 92°
2026-05-05 20:56 35.45540 140.76932 19345 ft 447 kts 92°
2026-05-05 20:56 35.45524 140.80718 19771 ft 452 kts 93°
2026-05-05 20:56 35.45506 140.84639 20129 ft 459 kts 93°
2026-05-05 20:56 35.45487 140.88582 20493 ft 465 kts 93°
2026-05-05 20:57 35.45466 140.92522 20878 ft 471 kts 93°
2026-05-05 20:57 35.45444 140.96594 21206 ft 477 kts 93°
2026-05-05 20:57 35.45420 141.00630 21597 ft 482 kts 93°
2026-05-05 20:57 35.45394 141.04764 21977 ft 486 kts 93°
2026-05-05 20:58 35.45367 141.08964 22248 ft 494 kts 93°
2026-05-05 20:58 35.45338 141.13188 22595 ft 499 kts 93°
2026-05-05 20:58 35.45307 141.17401 22923 ft 503 kts 93°
2026-05-05 20:58 35.45274 141.21753 23235 ft 509 kts 93°
2026-05-05 20:59 35.45240 141.26056 23605 ft 513 kts 93°
2026-05-05 20:59 35.45203 141.30476 23967 ft 518 kts 93°
2026-05-05 20:59 35.45165 141.34876 24248 ft 523 kts 93°
2026-05-05 20:59 35.45125 141.39351 24610 ft 528 kts 93°
2026-05-05 21:00 35.45083 141.43886 24968 ft 531 kts 93°
2026-05-05 21:00 35.45039 141.48389 25320 ft 536 kts 93°
2026-05-05 21:00 35.44992 141.52949 25721 ft 539 kts 92°
2026-05-05 21:00 35.44944 141.57552 26048 ft 544 kts 93°
2026-05-05 21:01 35.44894 141.62192 26356 ft 549 kts 93°
2026-05-05 21:01 35.44840 141.66936 26738 ft 552 kts 94°
2026-05-05 21:01 35.44786 141.71606 27014 ft 557 kts 93°
2026-05-05 21:01 35.44728 141.76401 27259 ft 562 kts 94°
2026-05-05 21:02 35.44668 141.81192 27626 ft 565 kts 93°
2026-05-05 21:02 35.44606 141.86014 27995 ft 567 kts 93°
2026-05-05 21:02 35.44542 141.90869 28270 ft 572 kts 93°
2026-05-05 21:02 35.44476 141.95718 28540 ft 577 kts 93°
2026-05-05 21:03 35.44406 142.00694 28854 ft 581 kts 94°
2026-05-05 21:03 35.44335 142.05641 29190 ft 584 kts 93°
2026-05-05 21:03 35.44262 142.10565 29531 ft 586 kts 93°
2026-05-05 21:03 35.44185 142.15575 29839 ft 590 kts 94°
2026-05-05 21:04 35.44105 142.20627 30205 ft 592 kts 93°
2026-05-05 21:04 35.44024 142.25688 30613 ft 592 kts 94°
2026-05-05 21:04 35.43941 142.30711 31064 ft 592 kts 94°
2026-05-05 21:04 35.43856 142.35741 31298 ft 596 kts 93°
2026-05-05 21:05 35.43681 142.45900 31313 ft 594 kts 92°
2026-05-05 21:05 35.44652 142.55920 31317 ft 596 kts 75°
2026-05-05 21:06 35.47634 142.65434 31322 ft 597 kts 63°
2026-05-05 21:06 35.51179 142.74558 31296 ft 594 kts 62°
2026-05-05 21:07 35.54700 142.83684 31299 ft 592 kts 62°
2026-05-05 21:07 35.58213 142.92857 31299 ft 593 kts 62°
2026-05-05 21:08 35.61696 143.02006 31296 ft 593 kts 63°
2026-05-05 21:08 35.65171 143.11182 31307 ft 592 kts 62°
2026-05-05 21:09 35.68649 143.20395 31310 ft 596 kts 62°
2026-05-05 21:09 35.72103 143.29579 31315 ft 592 kts 62°
2026-05-05 21:10 35.75563 143.38811 31321 ft 596 kts 62°
2026-05-05 21:10 35.79008 143.48030 31320 ft 593 kts 63°
2026-05-05 21:11 35.82470 143.57321 31321 ft 595 kts 63°
2026-05-05 21:11 35.85913 143.66592 31316 ft 595 kts 63°
2026-05-05 21:12 35.89332 143.75827 31314 ft 595 kts 63°
2026-05-05 21:12 35.92769 143.85135 31315 ft 597 kts 63°
2026-05-05 21:13 35.96180 143.94403 31316 ft 596 kts 63°
2026-05-05 21:13 35.99630 144.03789 31327 ft 598 kts 62°
2026-05-05 21:14 36.03972 144.12347 31328 ft 589 kts 44°
2026-05-05 21:14 36.09478 144.19710 31333 ft 581 kts 40°
2026-05-05 21:15 36.15032 144.26924 31328 ft 577 kts 40°
2026-05-05 21:15 36.20585 144.34161 31314 ft 580 kts 40°
2026-05-05 21:16 36.26121 144.41406 31332 ft 578 kts 40°
2026-05-05 21:16 36.31662 144.48679 31334 ft 577 kts 40°
2026-05-05 21:17 36.37135 144.55881 31338 ft 577 kts 40°
2026-05-05 21:17 36.42633 144.63132 31342 ft 577 kts 40°
2026-05-05 21:18 36.48184 144.70471 31322 ft 577 kts 41°
2026-05-05 21:18 36.53643 144.77707 31332 ft 577 kts 41°
2026-05-05 21:19 36.59139 144.85008 31326 ft 576 kts 41°
2026-05-05 21:19 36.64614 144.92296 31325 ft 576 kts 41°
2026-05-05 21:20 36.70082 144.99594 31336 ft 575 kts 41°
2026-05-05 21:20 36.75515 145.06860 31330 ft 574 kts 41°
2026-05-05 21:21 36.81007 145.14220 31338 ft 576 kts 41°
2026-05-05 21:21 36.86449 145.21530 31346 ft 576 kts 41°
2026-05-05 21:22 36.91888 145.28854 31337 ft 575 kts 40°
2026-05-05 21:22 36.97355 145.36232 31345 ft 576 kts 40°
2026-05-05 21:23 37.02777 145.43565 31342 ft 575 kts 41°
2026-05-05 21:23 37.08192 145.50905 31348 ft 574 kts 41°
2026-05-05 21:24 37.13617 145.58275 31340 ft 576 kts 41°
2026-05-05 21:24 37.18993 145.65736 31344 ft 579 kts 46°
2026-05-05 21:25 37.23519 145.74184 31324 ft 585 kts 53°
2026-05-05 21:25 37.27834 145.82814 31334 ft 586 kts 53°
2026-05-05 21:26 37.32164 145.91507 31327 ft 585 kts 53°
2026-05-05 21:26 37.36475 146.00185 31336 ft 587 kts 53°
2026-05-05 21:27 37.40808 146.08933 31335 ft 587 kts 54°
2026-05-05 21:27 37.45101 146.17622 31333 ft 587 kts 53°
2026-05-05 21:28 37.49412 146.26373 31330 ft 585 kts 53°
2026-05-05 21:28 37.53713 146.35121 31342 ft 591 kts 53°
2026-05-05 21:29 37.57998 146.43869 31339 ft 586 kts 53°
2026-05-05 21:29 37.62285 146.52638 31341 ft 587 kts 53°
2026-05-05 21:30 37.66553 146.61394 31336 ft 588 kts 53°
2026-05-05 21:30 37.70835 146.70201 31315 ft 588 kts 54°
2026-05-05 21:31 37.75132 146.79062 31324 ft 589 kts 54°
2026-05-05 21:31 37.79395 146.87877 31338 ft 590 kts 54°
2026-05-05 21:32 37.83685 146.96773 31346 ft 591 kts 54°
2026-05-05 21:32 37.87957 147.05656 31350 ft 591 kts 53°
2026-05-05 21:33 37.92215 147.14534 31351 ft 591 kts 53°
2026-05-05 21:33 37.96473 147.23434 31363 ft 593 kts 54°
2026-05-05 21:34 38.00743 147.32387 31359 ft 590 kts 53°
2026-05-05 21:34 38.04971 147.41278 31350 ft 588 kts 54°
2026-05-05 21:35 38.09207 147.50205 31346 ft 588 kts 54°
2026-05-05 21:35 38.13424 147.59122 31350 ft 583 kts 54°
2026-05-05 21:36 38.17614 147.67999 31320 ft 587 kts 54°
2026-05-05 21:36 38.21793 147.76881 31346 ft 583 kts 54°
2026-05-05 21:37 38.25956 147.85754 31321 ft 583 kts 55°
2026-05-05 21:37 38.30105 147.94618 31336 ft 584 kts 54°
2026-05-05 21:38 38.34243 148.03491 31336 ft 577 kts 55°
2026-05-05 21:38 38.38339 148.12289 31341 ft 579 kts 54°
2026-05-05 21:39 38.42433 148.21111 31347 ft 579 kts 54°
2026-05-05 21:39 38.46505 148.29910 31337 ft 575 kts 54°
2026-05-05 21:40 38.50568 148.38711 31353 ft 577 kts 54°
2026-05-05 21:40 38.54610 148.47496 31349 ft 573 kts 54°
2026-05-05 21:41 38.58633 148.56259 31345 ft 572 kts 55°
2026-05-05 21:41 38.62683 148.65103 31335 ft 575 kts 55°
2026-05-05 21:42 38.66703 148.73912 31332 ft 571 kts 55°
2026-05-05 21:42 38.70732 148.82762 31327 ft 572 kts 55°
2026-05-05 21:43 38.74705 148.91515 31334 ft 570 kts 55°
2026-05-05 21:43 38.78688 149.00313 31328 ft 570 kts 55°
2026-05-05 21:44 38.82679 149.09152 31344 ft 568 kts 55°
2026-05-05 21:44 38.86601 149.17865 31326 ft 567 kts 55°
2026-05-05 21:45 38.90568 149.26700 31351 ft 567 kts 55°
2026-05-05 21:45 38.94494 149.35469 31350 ft 565 kts 55°
2026-05-05 21:46 38.98407 149.44232 31343 ft 564 kts 56°
2026-05-05 21:46 39.02292 149.52960 31339 ft 562 kts 55°
2026-05-05 21:47 39.06189 149.61736 31340 ft 564 kts 56°
2026-05-05 21:47 39.10049 149.70454 31328 ft 559 kts 56°
2026-05-05 21:48 39.13881 149.79135 31326 ft 557 kts 56°
2026-05-05 21:48 39.17725 149.87816 31323 ft 560 kts 56°
2026-05-05 21:49 39.21589 149.96495 31329 ft 556 kts 56°
2026-05-05 21:49 39.25456 150.05205 31326 ft 556 kts 56°
2026-05-05 21:50 39.29284 150.13856 31328 ft 554 kts 56°
2026-05-05 21:50 39.33108 150.22520 31344 ft 556 kts 56°
2026-05-05 21:51 39.36907 150.31157 31327 ft 552 kts 56°
2026-05-05 21:51 39.40693 150.39781 31335 ft 553 kts 56°
2026-05-05 21:52 39.46336 150.52689 31336 ft 551 kts 57°
2026-05-05 21:53 39.50091 150.61308 31324 ft 548 kts 57°
2026-05-05 21:53 39.53833 150.69919 31318 ft 548 kts 57°
2026-05-05 21:54 39.57549 150.78494 31318 ft 547 kts 57°
2026-05-05 21:54 39.61266 150.87099 31321 ft 545 kts 57°
2026-05-05 21:55 39.64966 150.95685 31339 ft 545 kts 58°
2026-05-05 21:55 39.68643 151.04240 31342 ft 545 kts 57°
2026-05-05 21:56 39.72313 151.12805 31349 ft 544 kts 57°
2026-05-05 21:56 39.75985 151.21400 31332 ft 540 kts 57°
2026-05-05 21:57 39.79628 151.29950 31319 ft 540 kts 58°
2026-05-05 21:57 39.83239 151.38444 31333 ft 539 kts 58°
2026-05-05 21:58 39.86865 151.47005 31318 ft 536 kts 58°
2026-05-05 21:58 39.90451 151.55487 31335 ft 537 kts 57°
2026-05-05 21:59 39.94036 151.63997 31323 ft 531 kts 57°
2026-05-05 21:59 39.97603 151.72482 31321 ft 536 kts 58°
2026-05-05 22:00 40.01170 151.80995 31314 ft 531 kts 58°
2026-05-05 22:00 40.04741 151.89537 31315 ft 535 kts 58°
2026-05-05 22:01 40.08282 151.98032 31331 ft 531 kts 58°
2026-05-05 22:01 40.11823 152.06551 31316 ft 531 kts 58°
2026-05-05 22:02 40.15321 152.14995 31312 ft 530 kts 58°
2026-05-05 22:02 40.18827 152.23479 31318 ft 530 kts 58°
2026-05-05 22:03 40.22293 152.31891 31311 ft 529 kts 58°
2026-05-05 22:03 40.25783 152.40381 31305 ft 529 kts 58°
2026-05-05 22:04 40.29255 152.48854 31291 ft 528 kts 58°
2026-05-05 22:04 40.32726 152.57346 31312 ft 528 kts 58°
2026-05-05 22:05 40.36192 152.65852 31302 ft 527 kts 59°
2026-05-05 22:05 40.39634 152.74322 31297 ft 526 kts 59°
2026-05-05 22:06 40.43048 152.82748 31290 ft 525 kts 59°
2026-05-05 22:06 40.46492 152.91270 31301 ft 526 kts 59°
2026-05-05 22:07 40.49902 152.99734 31307 ft 526 kts 59°
2026-05-05 22:07 40.53319 153.08240 31312 ft 525 kts 59°
2026-05-05 22:08 40.56707 153.16693 31310 ft 525 kts 59°
2026-05-05 22:08 40.60117 153.25229 31304 ft 524 kts 59°
2026-05-05 22:09 40.63501 153.33723 31304 ft 526 kts 58°
2026-05-05 22:09 40.66888 153.42248 31303 ft 525 kts 59°
2026-05-05 22:10 40.70252 153.50745 31300 ft 523 kts 59°
2026-05-05 22:10 40.73625 153.59282 31292 ft 525 kts 59°
2026-05-05 22:11 40.76972 153.67783 31285 ft 524 kts 59°
2026-05-05 22:11 40.80339 153.76355 31284 ft 523 kts 59°
2026-05-05 22:12 40.83671 153.84863 31281 ft 523 kts 59°
2026-05-05 22:12 40.87013 153.93425 31286 ft 524 kts 59°
2026-05-05 22:13 40.90347 154.01990 31295 ft 524 kts 59°
2026-05-05 22:13 40.93665 154.10536 31285 ft 524 kts 59°
2026-05-05 22:14 40.96991 154.19130 31291 ft 524 kts 59°
2026-05-05 22:14 41.00294 154.27687 31283 ft 524 kts 59°
2026-05-05 22:15 41.03612 154.36311 31284 ft 524 kts 59°
2026-05-05 22:15 41.06902 154.44887 31283 ft 525 kts 59°
2026-05-05 22:16 41.10199 154.53505 31284 ft 523 kts 59°
2026-05-05 22:16 41.13492 154.62140 31278 ft 525 kts 59°
2026-05-05 22:17 41.16794 154.70822 31271 ft 525 kts 60°
2026-05-05 22:17 41.20097 154.79532 31258 ft 526 kts 60°
2026-05-05 22:18 41.23369 154.88191 31265 ft 524 kts 60°
2026-05-05 22:18 41.26638 154.96863 31265 ft 526 kts 60°
2026-05-05 22:19 41.29893 155.05525 31265 ft 525 kts 59°
2026-05-05 22:19 41.33153 155.14229 31258 ft 526 kts 60°
2026-05-05 22:20 41.36399 155.22917 31262 ft 527 kts 59°
2026-05-05 22:20 41.39658 155.31670 31254 ft 526 kts 59°
2026-05-05 22:21 41.42894 155.40387 31261 ft 529 kts 59°
2026-05-05 22:21 41.46155 155.49197 31269 ft 527 kts 60°
2026-05-05 22:22 41.49386 155.57953 31252 ft 530 kts 60°
2026-05-05 22:22 41.52629 155.66771 31243 ft 531 kts 60°
2026-05-05 22:23 41.55896 155.75678 31243 ft 531 kts 60°
2026-05-05 22:23 41.59132 155.84531 31229 ft 532 kts 60°
2026-05-05 22:24 41.62366 155.93405 31238 ft 530 kts 60°
2026-05-05 22:24 41.65600 156.02307 31230 ft 532 kts 60°
2026-05-05 22:25 41.68836 156.11240 31242 ft 532 kts 60°
2026-05-05 22:25 41.72049 156.20138 31237 ft 531 kts 60°
2026-05-05 22:26 41.75251 156.29036 31240 ft 534 kts 60°
2026-05-05 22:26 41.78459 156.37979 31239 ft 532 kts 59°
2026-05-05 22:27 41.81685 156.46999 31232 ft 533 kts 59°
2026-05-05 22:27 41.84871 156.55936 31229 ft 533 kts 60°
2026-05-05 22:28 41.88090 156.64995 31236 ft 534 kts 60°
2026-05-05 22:28 41.91259 156.73941 31224 ft 533 kts 60°
2026-05-05 22:29 41.94455 156.82991 31219 ft 535 kts 60°
2026-05-05 22:29 41.97608 156.91951 31231 ft 532 kts 60°
2026-05-05 22:30 42.00761 157.00938 31234 ft 534 kts 60°
2026-05-05 22:30 42.03914 157.09953 31243 ft 533 kts 60°
2026-05-05 22:31 42.07064 157.18990 31237 ft 534 kts 60°
2026-05-05 22:31 42.10207 157.28036 31238 ft 534 kts 60°
2026-05-05 22:32 42.13374 157.37181 31231 ft 535 kts 60°
2026-05-05 22:32 42.16517 157.46284 31230 ft 537 kts 60°
2026-05-05 22:33 42.19641 157.55366 31231 ft 534 kts 60°
2026-05-05 22:33 42.22754 157.64444 31233 ft 537 kts 60°
2026-05-05 22:34 42.25894 157.73633 31216 ft 536 kts 61°
2026-05-05 22:34 42.29002 157.82758 31218 ft 536 kts 61°
2026-05-05 22:35 42.32113 157.91919 31230 ft 536 kts 60°
2026-05-05 22:35 42.35210 158.01073 31216 ft 536 kts 60°
2026-05-05 22:36 42.38292 158.10208 31210 ft 539 kts 60°
2026-05-05 22:36 42.41376 158.19385 31211 ft 536 kts 60°
2026-05-05 22:37 42.44475 158.28633 31206 ft 537 kts 60°
2026-05-05 22:37 42.47551 158.37848 31211 ft 538 kts 60°
2026-05-05 22:38 42.50633 158.47108 31210 ft 538 kts 60°
2026-05-05 22:38 42.53693 158.56335 31207 ft 538 kts 60°
2026-05-05 22:39 42.56764 158.65630 31204 ft 538 kts 61°
2026-05-05 22:39 42.59839 158.74965 31194 ft 539 kts 61°
2026-05-05 22:40 42.62880 158.84232 31183 ft 540 kts 61°
2026-05-05 22:40 42.65922 158.93529 31192 ft 541 kts 61°
2026-05-05 22:41 42.68977 159.02902 31185 ft 539 kts 60°
2026-05-05 22:41 42.72038 159.12324 31172 ft 543 kts 60°
2026-05-05 22:42 42.75063 159.21672 31175 ft 542 kts 61°
2026-05-05 22:42 42.78084 159.31038 31179 ft 541 kts 60°
2026-05-05 22:43 42.81108 159.40446 31174 ft 540 kts 60°
2026-05-05 22:43 42.84106 159.49808 31176 ft 542 kts 60°
2026-05-05 22:44 42.87127 159.59270 31175 ft 542 kts 60°
2026-05-05 22:44 42.90105 159.68633 31159 ft 545 kts 61°
2026-05-05 22:45 42.93104 159.78099 31157 ft 543 kts 61°
2026-05-05 22:45 42.96106 159.87602 31160 ft 546 kts 61°
2026-05-05 22:46 42.99089 159.97087 31156 ft 543 kts 61°
2026-05-05 22:46 43.02375 160.06329 31174 ft 536 kts 50°
2026-05-05 22:47 43.06560 160.14710 31173 ft 535 kts 48°
2026-05-05 22:47 43.10721 160.23155 31171 ft 533 kts 49°
2026-05-05 22:48 43.14773 160.31563 31177 ft 532 kts 49°
2026-05-05 22:48 43.18833 160.40103 31169 ft 537 kts 50°
2026-05-05 22:49 43.22895 160.48734 31175 ft 533 kts 50°
2026-05-05 22:49 43.26892 160.57272 31171 ft 534 kts 50°
2026-05-05 22:50 43.30897 160.65872 31166 ft 534 kts 50°
2026-05-05 22:50 43.34893 160.74487 31146 ft 535 kts 50°
2026-05-05 22:51 43.38900 160.83153 31146 ft 536 kts 50°
2026-05-05 22:51 43.42897 160.91830 31149 ft 536 kts 50°
2026-05-05 22:52 43.46872 161.00487 31136 ft 535 kts 50°
2026-05-05 22:52 43.50840 161.09151 31142 ft 538 kts 50°
2026-05-05 22:53 43.54801 161.17831 31141 ft 533 kts 50°
2026-05-05 22:53 43.58755 161.26517 31143 ft 537 kts 50°
2026-05-05 22:54 43.62698 161.35208 31132 ft 533 kts 50°
2026-05-05 22:54 43.66653 161.43945 31131 ft 539 kts 50°
2026-05-05 22:55 43.70594 161.52689 31129 ft 533 kts 50°
2026-05-05 22:55 43.74515 161.61403 31129 ft 539 kts 50°
2026-05-05 22:56 43.78456 161.70195 31110 ft 536 kts 51°
2026-05-05 22:56 43.82398 161.79016 31109 ft 537 kts 51°
2026-05-05 22:57 43.86311 161.87796 31105 ft 535 kts 50°
2026-05-05 22:57 43.90245 161.96648 31095 ft 538 kts 51°
2026-05-05 22:58 43.94171 162.05518 31092 ft 536 kts 50°
2026-05-05 22:58 43.98049 162.14299 31096 ft 536 kts 50°
2026-05-05 22:59 44.01966 162.23193 31093 ft 538 kts 50°
2026-05-05 22:59 44.05857 162.32062 31098 ft 537 kts 50°
2026-05-05 23:00 44.11692 162.45410 31095 ft 539 kts 50°
2026-05-05 23:00 44.15592 162.54366 31092 ft 538 kts 50°
2026-05-05 23:01 44.19481 162.63321 31098 ft 541 kts 51°
2026-05-05 23:01 44.23356 162.72275 31075 ft 540 kts 51°
2026-05-05 23:02 44.27258 162.81319 31071 ft 544 kts 51°
2026-05-05 23:02 44.31150 162.90370 31070 ft 543 kts 51°
2026-05-05 23:03 44.35018 162.99394 31071 ft 542 kts 51°
2026-05-05 23:03 44.38926 163.08539 31070 ft 543 kts 51°
2026-05-05 23:04 44.42781 163.17593 31055 ft 540 kts 51°
2026-05-05 23:04 44.46644 163.26686 31063 ft 543 kts 51°
2026-05-05 23:05 44.50492 163.35776 31056 ft 545 kts 52°
2026-05-05 23:05 44.54373 163.44975 31056 ft 544 kts 51°
2026-05-05 23:06 44.58195 163.54065 31051 ft 543 kts 52°
2026-05-05 23:06 44.62014 163.63176 31053 ft 544 kts 51°
2026-05-05 23:07 44.65847 163.72345 31038 ft 546 kts 52°
2026-05-05 23:07 44.69658 163.81499 31034 ft 542 kts 52°
2026-05-05 23:08 44.73453 163.90634 31030 ft 548 kts 52°
2026-05-05 23:08 44.77246 163.99811 31030 ft 539 kts 52°
2026-05-05 23:09 44.81042 164.09004 31020 ft 545 kts 52°
2026-05-05 23:09 44.84853 164.18278 31021 ft 544 kts 52°
2026-05-05 23:10 44.88640 164.27516 31018 ft 545 kts 52°
2026-05-05 23:10 44.92426 164.36787 31016 ft 545 kts 52°
2026-05-05 23:11 44.96172 164.45990 31009 ft 545 kts 52°
2026-05-05 23:11 44.99977 164.55365 31010 ft 545 kts 52°
2026-05-05 23:12 45.03746 164.64685 31021 ft 548 kts 52°
2026-05-05 23:12 45.07488 164.73972 30993 ft 546 kts 53°
2026-05-05 23:13 45.11249 164.83331 30999 ft 549 kts 53°
2026-05-05 23:13 45.15003 164.92712 30998 ft 543 kts 53°
2026-05-05 23:14 45.18751 165.02098 31008 ft 551 kts 53°
2026-05-05 23:14 45.22483 165.11488 31003 ft 547 kts 53°
2026-05-05 23:15 45.26212 165.20898 30989 ft 545 kts 53°
2026-05-05 23:15 45.29949 165.30354 30983 ft 550 kts 53°
2026-05-05 23:16 45.33664 165.39792 30985 ft 549 kts 53°
2026-05-05 23:16 45.37365 165.49226 30976 ft 550 kts 53°
2026-05-05 23:17 45.41063 165.58685 30965 ft 548 kts 54°
2026-05-05 23:17 45.44751 165.68152 30964 ft 548 kts 54°
2026-05-05 23:18 45.48434 165.77637 30964 ft 547 kts 55°
2026-05-05 23:18 45.52131 165.87187 30959 ft 550 kts 55°
2026-05-05 23:19 45.55782 165.96657 30943 ft 547 kts 55°
2026-05-05 23:19 45.59452 166.06206 30947 ft 549 kts 55°
2026-05-05 23:20 45.63111 166.15761 30952 ft 550 kts 55°
2026-05-05 23:20 45.66770 166.25345 30927 ft 552 kts 56°
2026-05-05 23:21 45.70416 166.34935 30945 ft 549 kts 56°
2026-05-05 23:21 45.74056 166.44539 30942 ft 552 kts 56°
2026-05-05 23:22 45.77695 166.54175 30942 ft 551 kts 56°
2026-05-05 23:22 45.81343 166.63872 30938 ft 552 kts 56°
2026-05-05 23:23 45.84957 166.73508 30913 ft 553 kts 58°
2026-05-05 23:23 45.88604 166.83270 30917 ft 552 kts 58°
2026-05-05 23:24 45.92229 166.93007 30910 ft 554 kts 58°
2026-05-05 23:24 45.95822 167.02692 30932 ft 553 kts 58°
2026-05-05 23:25 45.99437 167.12473 30922 ft 552 kts 58°
2026-05-05 23:25 46.03037 167.22244 30932 ft 556 kts 58°
2026-05-05 23:26 46.06654 167.32104 30921 ft 556 kts 58°
2026-05-05 23:26 46.10258 167.41962 30922 ft 557 kts 59°
2026-05-05 23:27 46.13842 167.51799 30933 ft 557 kts 58°
2026-05-05 23:27 46.17432 167.61691 30926 ft 558 kts 59°
2026-05-05 23:28 46.21031 167.71640 30898 ft 559 kts 60°
2026-05-05 23:28 46.24607 167.81567 30908 ft 561 kts 60°
2026-05-05 23:29 46.28206 167.91595 30903 ft 559 kts 60°
2026-05-05 23:29 46.31767 168.01553 30892 ft 562 kts 60°
2026-05-05 23:30 46.35334 168.11566 30896 ft 561 kts 60°
2026-05-05 23:30 46.38873 168.21538 30893 ft 560 kts 60°
2026-05-05 23:31 46.42426 168.31584 30892 ft 560 kts 60°
2026-05-05 23:31 46.45963 168.41626 30899 ft 558 kts 60°
2026-05-05 23:32 46.49499 168.51700 30892 ft 559 kts 60°
2026-05-05 23:32 46.52985 168.61671 30888 ft 559 kts 61°
2026-05-05 23:33 46.56490 168.71735 30867 ft 557 kts 62°
2026-05-05 23:33 46.59975 168.81779 30871 ft 559 kts 62°
2026-05-05 23:34 46.63457 168.91856 30866 ft 557 kts 62°
2026-05-05 23:34 46.66925 169.01927 30872 ft 558 kts 62°
2026-05-05 23:35 46.70375 169.11984 30861 ft 557 kts 63°
2026-05-05 23:35 46.73845 169.22142 30875 ft 560 kts 62°
2026-05-05 23:36 46.77295 169.32277 30865 ft 560 kts 63°
2026-05-05 23:36 46.80724 169.42389 30854 ft 559 kts 63°
2026-05-05 23:37 46.84168 169.52586 30850 ft 559 kts 63°
2026-05-05 23:37 46.87596 169.62778 30858 ft 562 kts 63°
2026-05-05 23:38 46.91032 169.73032 30842 ft 560 kts 64°
2026-05-05 23:38 46.94449 169.83269 30844 ft 560 kts 64°
2026-05-05 23:39 46.97838 169.93463 30836 ft 559 kts 64°
2026-05-05 23:39 47.01274 170.03700 30867 ft 565 kts 63°
2026-05-05 23:40 47.03111 170.08757 31157 ft 568 kts 62°
2026-05-05 23:40 47.04968 170.13844 31647 ft 564 kts 62°
2026-05-05 23:40 47.06810 170.18907 32097 ft 561 kts 62°
2026-05-05 23:40 47.08630 170.23930 32406 ft 562 kts 62°
2026-05-05 23:41 47.10464 170.29004 32661 ft 564 kts 63°
2026-05-05 23:41 47.12294 170.34087 32797 ft 567 kts 62°
2026-05-05 23:41 47.15990 170.44385 32819 ft 567 kts 63°
2026-05-05 23:42 47.19644 170.54617 32815 ft 567 kts 63°
2026-05-05 23:42 47.23278 170.64838 32806 ft 565 kts 63°
2026-05-05 23:43 47.26920 170.75122 32797 ft 567 kts 64°
2026-05-05 23:43 47.30523 170.85341 32789 ft 565 kts 64°
2026-05-05 23:44 47.34128 170.95605 32794 ft 567 kts 64°
2026-05-05 23:44 47.37747 171.05949 32788 ft 567 kts 64°
2026-05-05 23:45 47.41341 171.16264 32785 ft 566 kts 64°
2026-05-05 23:45 47.44926 171.26593 32784 ft 569 kts 64°
2026-05-05 23:46 47.48514 171.36972 32783 ft 568 kts 64°
2026-05-05 23:46 47.52102 171.47392 32781 ft 569 kts 64°
2026-05-05 23:47 47.55689 171.57852 32774 ft 570 kts 64°
2026-05-05 23:47 47.59241 171.68249 32759 ft 569 kts 65°
2026-05-05 23:48 47.62817 171.78761 32754 ft 571 kts 65°
2026-05-05 23:48 47.66371 171.89252 32746 ft 570 kts 66°
2026-05-05 23:49 47.69890 171.99678 32746 ft 571 kts 66°
2026-05-05 23:49 47.73444 172.10255 32744 ft 573 kts 66°
2026-05-05 23:50 47.76986 172.20836 32749 ft 572 kts 66°
2026-05-05 23:50 47.80509 172.31406 32737 ft 570 kts 66°
2026-05-05 23:51 47.84034 172.42023 32751 ft 575 kts 66°
2026-05-05 23:51 47.87555 172.52673 32752 ft 572 kts 67°
2026-05-05 23:52 47.91071 172.63354 32746 ft 575 kts 67°
2026-05-05 23:52 47.94565 172.74013 32740 ft 575 kts 68°
2026-05-05 23:53 47.98067 172.84737 32730 ft 575 kts 68°
2026-05-05 23:53 48.01545 172.95436 32736 ft 577 kts 68°
2026-05-05 23:54 48.05045 173.06247 32729 ft 577 kts 68°
2026-05-05 23:54 48.08512 173.17006 32718 ft 579 kts 69°
2026-05-05 23:55 48.12016 173.27919 32700 ft 577 kts 69°
2026-05-05 23:55 48.15483 173.38762 32704 ft 579 kts 69°
2026-05-05 23:56 48.18954 173.49664 32680 ft 578 kts 69°
2026-05-05 23:56 48.22407 173.60565 32683 ft 582 kts 69°
2026-05-05 23:57 48.25843 173.71454 32658 ft 577 kts 70°
2026-05-05 23:57 48.29293 173.82446 32660 ft 584 kts 70°
2026-05-05 23:58 48.32717 173.93388 32664 ft 581 kts 70°
2026-05-05 23:58 48.36133 174.04355 32661 ft 582 kts 70°
2026-05-05 23:59 48.39568 174.15434 32659 ft 581 kts 70°
2026-05-05 23:59 48.42988 174.26521 32667 ft 586 kts 70°
2026-05-06 00:00 48.46405 174.37640 32685 ft 583 kts 71°
2026-05-06 00:00 48.49800 174.48744 32676 ft 585 kts 71°
2026-05-06 00:01 48.53211 174.59947 32673 ft 588 kts 71°
2026-05-06 00:01 48.56621 174.71193 32675 ft 586 kts 73°
2026-05-06 00:02 48.59975 174.82307 32676 ft 586 kts 73°
2026-05-06 00:02 48.63335 174.93497 32671 ft 585 kts 72°
2026-05-06 00:03 48.66712 175.04796 32678 ft 590 kts 72°
2026-05-06 00:03 48.70078 175.16087 32688 ft 583 kts 72°
2026-05-06 00:04 48.73422 175.27385 32704 ft 588 kts 72°
2026-05-06 00:04 48.76726 175.38577 32703 ft 582 kts 72°
2026-05-06 00:05 48.81688 175.55508 32724 ft 582 kts 73°
2026-05-06 00:06 48.84971 175.66775 32730 ft 587 kts 72°
2026-05-06 00:06 48.88278 175.78175 32714 ft 585 kts 72°
2026-05-06 00:07 48.91516 175.89374 32726 ft 577 kts 72°
2026-05-06 00:07 48.94731 176.00572 32723 ft 583 kts 72°
2026-05-06 00:08 48.97948 176.11816 32730 ft 580 kts 72°
2026-05-06 00:08 49.01152 176.23070 32740 ft 579 kts 72°
2026-05-06 00:09 49.04333 176.34296 32746 ft 579 kts 72°
2026-05-06 00:09 49.07534 176.45645 32746 ft 583 kts 72°
2026-05-06 00:10 49.10689 176.56882 32743 ft 577 kts 71°
2026-05-06 00:10 49.13831 176.68126 32735 ft 578 kts 73°
2026-05-06 00:11 49.16991 176.79491 32744 ft 578 kts 73°
2026-05-06 00:11 49.20106 176.90745 32756 ft 577 kts 72°
2026-05-06 00:12 49.23219 177.02048 32763 ft 577 kts 72°
2026-05-06 00:12 49.26340 177.13441 32770 ft 579 kts 71°
2026-05-06 00:13 49.29429 177.24756 32787 ft 574 kts 71°
2026-05-06 00:13 49.32508 177.36107 32805 ft 580 kts 71°
2026-05-06 00:14 49.35574 177.47455 32801 ft 576 kts 71°
2026-05-06 00:14 49.38649 177.58894 32816 ft 581 kts 71°
2026-05-06 00:15 49.41699 177.70293 32819 ft 577 kts 72°
2026-05-06 00:15 49.44718 177.81635 32835 ft 577 kts 71°
2026-05-06 00:16 49.47765 177.93140 32841 ft 580 kts 71°
2026-05-06 00:16 49.50765 178.04515 32849 ft 576 kts 71°
2026-05-06 00:17 49.53776 178.15997 32858 ft 579 kts 71°
2026-05-06 00:17 49.56753 178.27405 32870 ft 575 kts 71°
2026-05-06 00:18 49.59730 178.38870 32886 ft 577 kts 71°
2026-05-06 00:18 49.62690 178.50325 32891 ft 574 kts 70°
2026-05-06 00:19 49.65625 178.61743 32898 ft 574 kts 70°
2026-05-06 00:19 49.68550 178.73186 32883 ft 574 kts 71°
2026-05-06 00:20 49.71464 178.84634 32890 ft 574 kts 71°
2026-05-06 00:20 49.74368 178.96100 32897 ft 577 kts 70°
2026-05-06 00:21 49.77265 179.07597 32909 ft 573 kts 70°
2026-05-06 00:21 49.80136 179.19055 32923 ft 574 kts 70°
2026-05-06 00:22 49.83022 179.30633 32933 ft 574 kts 70°
2026-05-06 00:22 49.85860 179.42076 32937 ft 572 kts 70°
2026-05-06 00:23 49.88701 179.53590 32940 ft 573 kts 70°
2026-05-06 00:23 49.91519 179.65071 32946 ft 570 kts 70°
2026-05-06 00:24 49.94328 179.76575 32945 ft 571 kts 70°
2026-05-06 00:24 49.97138 179.88142 32951 ft 571 kts 71°
2026-05-06 00:25 49.99910 179.99611 32962 ft 569 kts 70°
2026-05-06 00:25 50.03342 -179.89322 32969 ft 570 kts 58°
2026-05-06 00:26 50.07385 -179.78778 32967 ft 567 kts 58°
2026-05-06 00:26 50.11379 -179.68114 32965 ft 569 kts 59°
2026-05-06 00:27 50.15302 -179.57433 32977 ft 568 kts 59°
2026-05-06 00:27 50.19161 -179.46794 32969 ft 568 kts 60°
2026-05-06 00:28 50.23028 -179.36028 32979 ft 568 kts 60°
2026-05-06 00:28 50.26868 -179.25262 32977 ft 565 kts 60°
2026-05-06 00:29 50.30680 -179.14516 32989 ft 569 kts 60°
2026-05-06 00:29 50.34493 -179.03705 32996 ft 566 kts 60°